Time,TemperatureF,DewpointF,PressureIn,WindDirection,WindDirectionDegrees,WindSpeedMPH,WindSpeedGustMPH,Humidity,HourlyPrecipIn,Conditions,Clouds,dailyrainin,SoftwareType,DateUTC
2013-01-16 00:07:00,13.3,11.0,30.17,SSW,212,0.0,0.0,91,0.00,,,0.00,weatherlink.com 1.10,2013-01-16 06:07:00,
2013-01-16 00:22:00,13.0,11.0,30.17,SSW,212,0.0,0.0,91,0.00,,,0.00,weatherlink.com 1.10,2013-01-16 06:22:00,
2013-01-16 00:37:00,13.0,11.0,30.16,SSW,212,0.0,0.0,91,0.00,,,0.00,weatherlink.com 1.10,2013-01-16 06:37:00,
2013-01-16 00:52:00,13.0,11.0,30.16,SSW,212,0.0,0.0,91,0.00,,,0.00,weatherlink.com 1.10,2013-01-16 06:52:00,
2013-01-16 01:08:00,12.8,11.0,30.16,SSW,212,0.0,0.0,91,0.00,,,0.00,weatherlink.com 1.10,2013-01-16 07:08:00,
2013-01-16 01:22:00,12.5,10.0,30.15,SSW,211,0.0,2.0,90,0.00,,,0.00,weatherlink.com 1.10,2013-01-16 07:22:00,
2013-01-16 01:37:00,12.1,10.0,30.14,SSW,211,0.0,0.0,90,0.00,,,0.00,weatherlink.com 1.10,2013-01-16 07:37:00,
2013-01-16 01:52:00,12.1,10.0,30.14,SSW,209,0.0,1.0,91,0.00,,,0.00,weatherlink.com 1.10,2013-01-16 07:52:00,
2013-01-16 02:08:00,12.9,11.0,30.14,SSW,207,0.0,2.0,92,0.00,,,0.00,weatherlink.com 1.10,2013-01-16 08:08:00,
2013-01-16 02:23:00,13.5,12.0,30.14,SSW,207,1.0,2.0,92,0.00,,,0.00,weatherlink.com 1.10,2013-01-16 08:23:00,
2013-01-16 02:38:00,14.1,12.0,30.13,SSW,207,0.0,0.0,91,0.00,,,0.00,weatherlink.com 1.10,2013-01-16 08:38:00,
2013-01-16 02:53:00,14.7,13.0,30.12,SSW,207,1.0,2.0,91,0.00,,,0.00,weatherlink.com 1.10,2013-01-16 08:53:00,
2013-01-16 03:08:00,15.1,13.0,30.12,SSW,207,0.0,2.0,90,0.00,,,0.00,weatherlink.com 1.10,2013-01-16 09:08:00,
2013-01-16 03:23:00,14.9,13.0,30.12,WSW,242,0.0,2.0,90,0.00,,,0.00,weatherlink.com 1.10,2013-01-16 09:23:00,
2013-01-16 03:38:00,14.8,12.0,30.11,WSW,237,0.0,2.0,89,0.00,,,0.00,weatherlink.com 1.10,2013-01-16 09:38:00,
2013-01-16 03:53:00,14.7,12.0,30.09,WSW,237,1.0,1.0,89,0.00,,,0.00,weatherlink.com 1.10,2013-01-16 09:53:00,
2013-01-16 04:08:00,14.8,12.0,30.09,WSW,254,0.0,3.0,89,0.00,,,0.00,weatherlink.com 1.10,2013-01-16 10:08:00,
2013-01-16 04:23:00,14.8,12.0,30.07,SW,215,3.0,4.0,89,0.00,,,0.00,weatherlink.com 1.10,2013-01-16 10:23:00,
2013-01-16 04:53:00,14.6,12.0,30.05,WSW,246,1.0,3.0,88,0.00,,,0.00,weatherlink.com 1.10,2013-01-16 10:53:00,
2013-01-16 05:08:00,14.5,12.0,30.05,WSW,238,0.0,3.0,88,0.00,,,0.00,weatherlink.com 1.10,2013-01-16 11:08:00,
2013-01-16 05:23:00,14.3,11.0,30.05,WSW,240,1.0,2.0,88,0.00,,,0.00,weatherlink.com 1.10,2013-01-16 11:23:00,
2013-01-16 05:38:00,14.1,11.0,30.04,SW,228,2.0,3.0,88,0.00,,,0.00,weatherlink.com 1.10,2013-01-16 11:38:00,
2013-01-16 05:53:00,14.2,11.0,30.05,WSW,245,0.0,3.0,88,0.00,,,0.00,weatherlink.com 1.10,2013-01-16 11:53:00,
2013-01-16 06:08:00,14.3,11.0,30.04,WSW,240,0.0,2.0,87,0.00,,,0.00,weatherlink.com 1.10,2013-01-16 12:08:00,
2013-01-16 06:23:00,14.7,11.0,30.03,SW,221,1.0,3.0,86,0.00,,,0.00,weatherlink.com 1.10,2013-01-16 12:23:00,
2013-01-16 06:38:00,15.1,12.0,30.02,SW,221,1.0,4.0,86,0.00,,,0.00,weatherlink.com 1.10,2013-01-16 12:38:00,
2013-01-16 06:53:00,15.8,12.0,30.02,SW,219,2.0,5.0,85,0.00,,,0.00,weatherlink.com 1.10,2013-01-16 12:53:00,
2013-01-16 07:08:00,16.1,12.0,30.02,SSE,158,0.0,5.0,83,0.00,,,0.00,weatherlink.com 1.10,2013-01-16 13:08:00,
2013-01-16 07:23:00,16.6,12.0,30.01,West,259,1.0,6.0,82,0.00,,,0.00,weatherlink.com 1.10,2013-01-16 13:23:00,
2013-01-16 07:38:00,17.1,12.0,30.02,SW,227,3.0,3.0,81,0.00,,,0.00,weatherlink.com 1.10,2013-01-16 13:38:00,
2013-01-16 07:53:00,17.7,13.0,30.02,WSW,237,0.0,4.0,80,0.00,,,0.00,weatherlink.com 1.10,2013-01-16 13:53:00,
2013-01-16 08:08:00,18.9,13.0,30.01,SW,225,1.0,6.0,78,0.00,,,0.00,weatherlink.com 1.10,2013-01-16 14:08:00,
2013-01-16 08:23:00,19.6,14.0,30.00,SW,232,1.0,6.0,77,0.00,,,0.00,weatherlink.com 1.10,2013-01-16 14:23:00,
2013-01-16 08:38:00,20.5,14.0,29.99,SSW,194,2.0,7.0,76,0.00,,,0.00,weatherlink.com 1.10,2013-01-16 14:38:00,
2013-01-16 08:53:00,21.9,15.0,29.99,SW,219,3.0,9.0,74,0.00,,,0.00,weatherlink.com 1.10,2013-01-16 14:53:00,
2013-01-16 09:08:00,23.2,16.0,29.98,SE,143,5.0,7.0,73,0.00,,,0.00,weatherlink.com 1.10,2013-01-16 15:08:00,
2013-01-16 09:23:00,24.7,16.0,29.98,SW,233,2.0,8.0,70,0.00,,,0.00,weatherlink.com 1.10,2013-01-16 15:23:00,
2013-01-16 09:38:00,25.3,16.0,29.98,SW,236,6.0,10.0,69,0.00,,,0.00,weatherlink.com 1.10,2013-01-16 15:38:00,
2013-01-16 09:53:00,26.0,17.0,29.97,SSW,202,5.0,10.0,70,0.00,,,0.00,weatherlink.com 1.10,2013-01-16 15:53:00,
2013-01-16 10:08:00,27.0,18.0,29.96,SE,146,1.0,9.0,69,0.00,,,0.00,weatherlink.com 1.10,2013-01-16 16:08:00,
2013-01-16 10:23:00,27.8,19.0,29.96,WNW,290,1.0,10.0,69,0.00,,,0.00,weatherlink.com 1.10,2013-01-16 16:23:00,
2013-01-16 10:38:00,28.3,19.0,29.94,SW,229,4.0,10.0,69,0.00,,,0.00,weatherlink.com 1.10,2013-01-16 16:38:00,
2013-01-16 10:53:00,28.7,20.0,29.93,SW,228,6.0,8.0,70,0.00,,,0.00,weatherlink.com 1.10,2013-01-16 16:53:00,
2013-01-16 11:08:00,29.3,21.0,29.92,SSW,205,2.0,10.0,71,0.00,,,0.00,weatherlink.com 1.10,2013-01-16 17:08:00,
2013-01-16 11:23:00,30.0,22.0,29.91,South,184,3.0,9.0,71,0.00,,,0.00,weatherlink.com 1.10,2013-01-16 17:23:00,
2013-01-16 11:39:00,30.9,23.0,29.91,SSW,207,3.0,11.0,71,0.00,,,0.00,weatherlink.com 1.10,2013-01-16 17:39:00,
2013-01-16 11:54:00,31.5,23.0,29.90,SSW,195,5.0,19.0,70,0.00,,,0.00,weatherlink.com 1.10,2013-01-16 17:54:00,
2013-01-16 12:09:00,32.0,23.0,29.90,SE,140,2.0,11.0,69,0.00,,,0.00,weatherlink.com 1.10,2013-01-16 18:09:00,
2013-01-16 12:24:00,32.2,23.0,29.89,WSW,241,2.0,14.0,68,0.00,,,0.00,weatherlink.com 1.10,2013-01-16 18:24:00,
2013-01-16 12:39:00,32.5,24.0,29.87,SW,225,4.0,12.0,70,0.00,,,0.00,weatherlink.com 1.10,2013-01-16 18:39:00,
2013-01-16 12:54:00,32.5,24.0,29.88,WSW,256,3.0,8.0,70,0.00,,,0.00,weatherlink.com 1.10,2013-01-16 18:54:00,
2013-01-16 13:09:00,32.5,24.0,29.89,West,259,3.0,10.0,72,0.00,,,0.00,weatherlink.com 1.10,2013-01-16 19:09:00,
2013-01-16 13:24:00,32.7,24.0,29.89,WSW,247,5.0,13.0,70,0.00,,,0.00,weatherlink.com 1.10,2013-01-16 19:24:00,
2013-01-16 13:39:00,32.3,24.0,29.88,WSW,254,3.0,10.0,71,0.00,,,0.00,weatherlink.com 1.10,2013-01-16 19:39:00,
2013-01-16 13:54:00,32.3,25.0,29.89,SSW,205,3.0,10.0,73,0.00,,,0.00,weatherlink.com 1.10,2013-01-16 19:54:00,
2013-01-16 14:09:00,32.3,25.0,29.90,WSW,242,3.0,15.0,73,0.00,,,0.00,weatherlink.com 1.10,2013-01-16 20:09:00,
2013-01-16 14:24:00,32.2,25.0,29.89,WSW,237,2.0,11.0,76,0.00,,,0.00,weatherlink.com 1.10,2013-01-16 20:24:00,
2013-01-16 14:39:00,32.5,26.0,29.89,West,265,3.0,10.0,76,0.00,,,0.00,weatherlink.com 1.10,2013-01-16 20:39:00,
2013-01-16 14:54:00,32.9,26.0,29.88,West,274,3.0,7.0,77,0.00,,,0.00,weatherlink.com 1.10,2013-01-16 20:54:00,
2013-01-16 15:09:00,32.9,27.0,29.89,SSW,207,3.0,10.0,78,0.00,,,0.00,weatherlink.com 1.10,2013-01-16 21:09:00,
2013-01-16 15:24:00,32.9,27.0,29.91,West,281,3.0,8.0,78,0.00,,,0.00,weatherlink.com 1.10,2013-01-16 21:24:00,
2013-01-16 15:39:00,33.1,27.0,29.92,West,259,7.0,9.0,78,0.01,,,0.01,weatherlink.com 1.10,2013-01-16 21:39:00,
2013-01-16 15:54:00,33.1,27.0,29.93,SSW,213,2.0,10.0,79,0.01,,,0.01,weatherlink.com 1.10,2013-01-16 21:54:00,
2013-01-16 16:09:00,33.0,27.0,29.95,West,269,4.0,11.0,79,0.01,,,0.01,weatherlink.com 1.10,2013-01-16 22:09:00,
2013-01-16 16:24:00,33.0,27.0,29.96,WSW,252,2.0,9.0,79,0.01,,,0.01,weatherlink.com 1.10,2013-01-16 22:24:00,
2013-01-16 16:39:00,33.0,27.0,29.96,West,260,3.0,10.0,80,0.00,,,0.01,weatherlink.com 1.10,2013-01-16 22:39:00,
2013-01-16 16:54:00,33.0,28.0,29.97,SW,218,1.0,5.0,81,0.00,,,0.01,weatherlink.com 1.10,2013-01-16 22:54:00,
2013-01-16 17:09:00,32.9,28.0,29.98,SW,232,4.0,4.0,82,0.00,,,0.01,weatherlink.com 1.10,2013-01-16 23:09:00,
2013-01-16 17:24:00,32.9,28.0,29.98,SW,236,0.0,3.0,83,0.00,,,0.01,weatherlink.com 1.10,2013-01-16 23:24:00,
2013-01-16 17:39:00,32.7,28.0,29.98,SW,234,2.0,5.0,83,0.00,,,0.01,weatherlink.com 1.10,2013-01-16 23:39:00,
2013-01-16 17:54:00,32.5,28.0,29.98,WSW,240,1.0,3.0,84,0.00,,,0.01,weatherlink.com 1.10,2013-01-16 23:54:00,
2013-01-16 18:09:00,32.5,28.0,29.99,WSW,239,2.0,5.0,84,0.00,,,0.01,weatherlink.com 1.10,2013-01-17 00:09:00,
2013-01-16 18:24:00,32.8,29.0,30.00,WSW,239,1.0,5.0,84,0.00,,,0.01,weatherlink.com 1.10,2013-01-17 00:24:00,
2013-01-16 18:39:00,32.7,28.0,30.00,WSW,242,0.0,4.0,84,0.00,,,0.01,weatherlink.com 1.10,2013-01-17 00:39:00,
2013-01-16 18:54:00,31.9,28.0,30.01,SSW,204,1.0,4.0,86,0.00,,,0.01,weatherlink.com 1.10,2013-01-17 00:54:00,
2013-01-16 19:09:00,31.4,28.0,30.02,SW,221,0.0,3.0,87,0.00,,,0.01,weatherlink.com 1.10,2013-01-17 01:09:00,
2013-01-16 19:24:00,31.4,28.0,30.02,West,269,1.0,5.0,86,0.00,,,0.01,weatherlink.com 1.10,2013-01-17 01:24:00,
2013-01-16 19:39:00,31.5,28.0,30.03,SSW,213,2.0,3.0,86,0.00,,,0.01,weatherlink.com 1.10,2013-01-17 01:39:00,
2013-01-16 19:54:00,31.5,28.0,30.03,WSW,237,1.0,5.0,87,0.00,,,0.01,weatherlink.com 1.10,2013-01-17 01:54:00,
2013-01-16 20:10:00,31.7,28.0,30.04,West,267,1.0,7.0,87,0.00,,,0.01,weatherlink.com 1.10,2013-01-17 02:10:00,
2013-01-16 20:25:00,32.0,29.0,30.04,WSW,253,1.0,5.0,87,0.00,,,0.01,weatherlink.com 1.10,2013-01-17 02:25:00,
2013-01-16 20:40:00,32.1,29.0,30.05,SW,218,2.0,5.0,87,0.00,,,0.01,weatherlink.com 1.10,2013-01-17 02:40:00,
2013-01-16 20:55:00,31.9,29.0,30.05,SW,232,1.0,5.0,87,0.00,,,0.01,weatherlink.com 1.10,2013-01-17 02:55:00,
2013-01-16 21:10:00,31.3,28.0,30.06,SW,222,4.0,7.0,88,0.00,,,0.01,weatherlink.com 1.10,2013-01-17 03:10:00,
2013-01-16 21:25:00,31.5,29.0,30.05,WSW,238,2.0,5.0,89,0.00,,,0.01,weatherlink.com 1.10,2013-01-17 03:25:00,
2013-01-16 21:40:00,31.9,29.0,30.05,WSW,251,0.0,6.0,89,0.00,,,0.01,weatherlink.com 1.10,2013-01-17 03:40:00,
2013-01-16 21:55:00,32.2,29.0,30.05,West,269,1.0,4.0,89,0.00,,,0.01,weatherlink.com 1.10,2013-01-17 03:55:00,
2013-01-16 22:10:00,32.1,29.0,30.05,NW,304,4.0,6.0,89,0.00,,,0.01,weatherlink.com 1.10,2013-01-17 04:10:00,
2013-01-16 22:25:00,31.7,29.0,30.06,West,275,2.0,4.0,89,0.00,,,0.01,weatherlink.com 1.10,2013-01-17 04:25:00,
2013-01-16 22:40:00,32.0,29.0,30.06,WNW,284,2.0,5.0,90,0.00,,,0.01,weatherlink.com 1.10,2013-01-17 04:40:00,
2013-01-16 22:55:00,32.5,30.0,30.07,WSW,257,1.0,5.0,90,0.00,,,0.01,weatherlink.com 1.10,2013-01-17 04:55:00,
2013-01-16 23:10:00,32.8,30.0,30.07,West,263,0.0,4.0,90,0.00,,,0.01,weatherlink.com 1.10,2013-01-17 05:10:00,
2013-01-16 23:25:00,32.9,31.0,30.08,West,263,1.0,2.0,91,0.00,,,0.01,weatherlink.com 1.10,2013-01-17 05:25:00,
2013-01-16 23:40:00,33.1,31.0,30.09,West,267,0.0,2.0,91,0.00,,,0.01,weatherlink.com 1.10,2013-01-17 05:40:00,
2013-01-16 23:55:00,33.3,31.0,30.11,West,269,0.0,3.0,91,0.00,,,0.01,weatherlink.com 1.10,2013-01-17 05:55:00,